Weather History for Rae Point, NT

Change the Weather History Date:

Tuesday, October 2, 2012

  Actual Average Record
Temperature  
Mean Temperature 16 °F -  
Max Temperature 18 °F - - ()
Min Temperature 14 °F - - ()
Degree Days  
Heating Degree Days 49    
Moisture  
Dew Point 13 °F    
Average Humidity 89    
Maximum Humidity 93    
Minimum Humidity 81    
Precipitation  
Precipitation 0.00 in - - ()
Sea Level Pressure  
Sea Level Pressure 30.23 in    
Wind  
Wind Speed 17 mph ()    
Max Wind Speed 29 mph    
Max Gust Speed 34 mph    
T = Trace of Precipitation, MM = Missing Value Source: Averaged Metar Reports

Daily Weather History Graph

Daily Weather History Graph

Search for Another Location

Airport:

Trip Planner

Search our weather history database for the weather conditions in past years. The results will help you decide how hot, cold, wet, or windy it might be!

Date:

Astronomy

Oct. 02, 2012 Rise Set
Actual Time 7:38 AM MDT 6:02 PM MDT
Civil Twilight 6:15 AM MDT 7:24 PM MDT
Nautical Twilight 4:33 AM MDT 9:05 PM MDT
Astronomical Twilight 1:44 AM MDT 11:39 PM MDT
Moon No Moon Rise No Moon Set
Length of Visible Light 13h 08m
Length of Day
10h 24m
Waning Gibbous, 94% of the Moon is Illuminated
Oct 2
Waning Gibbous
Oct 8
Last Quarter
Oct 15
New
Oct 21
First Quarter
Oct 29
Full

Hourly Weather History & Observations

Time (MDT) Temp. Windchill Dew Point Humidity Pressure Visibility Wind Dir Wind Speed Gust Speed Precip Events Conditions
12:00 AM 17 °F - 15 °F 88% 30.14 in - WNW 20.7 mph - -  
12:00 AM 17.2 °F 0.4 °F 15.1 °F 91% 30.14 in - WNW 20.7 mph - N/A   Unknown
1:00 AM 15.1 °F -2.9 °F 12.2 °F 88% 30.15 in - WNW 21.9 mph - N/A   Unknown
2:00 AM 16.3 °F 2.1 °F 13.5 °F 88% 30.17 in - WNW 13.8 mph - N/A   Unknown
3:00 AM 17.2 °F 2.7 °F 15.1 °F 91% 30.19 in - WNW 15.0 mph - N/A   Unknown
4:00 AM 15.4 °F -1.6 °F 13.5 °F 92% 30.20 in - WNW 19.6 mph - N/A   Unknown
5:00 AM 16.9 °F -1.6 °F 14.9 °F 92% 30.21 in - WNW 25.3 mph - N/A   Unknown
6:00 AM 17 °F - 15 °F 87% 30.22 in - WNW 28.8 mph - -  
6:00 AM 16.7 °F -2.8 °F 14.9 °F 93% 30.22 in - WNW 28.8 mph 34.5 mph N/A   Unknown
7:00 AM 15.1 °F -4.4 °F 12.9 °F 91% 30.24 in - WNW 26.5 mph - N/A   Unknown
8:00 AM 14.5 °F -3.6 °F 12.6 °F 92% 30.26 in - WNW 21.9 mph - N/A   Unknown
9:00 AM 14.9 °F -3.5 °F 12.7 °F 91% 30.26 in - WNW 23.0 mph - N/A   Unknown
10:00 AM 14.4 °F -3.0 °F 12.0 °F 90% 30.26 in - WNW 19.6 mph - N/A   Unknown
11:00 AM 14.9 °F 1.6 °F 12.2 °F 89% 30.28 in - WNW 11.5 mph - N/A   Unknown
12:00 PM 16 °F - 13 °F 82% 30.27 in - WNW 15.0 mph - -  
12:00 PM 15.8 °F 0.9 °F 12.9 °F 88% 30.27 in - WNW 15.0 mph - N/A   Unknown
1:00 PM 16.0 °F 0.6 °F 12.7 °F 87% 30.27 in - WNW 16.1 mph - N/A   Unknown
2:00 PM 15.8 °F 0.3 °F 12.7 °F 88% 30.27 in - WNW 16.1 mph - N/A   Unknown
3:00 PM 14.7 °F -3.4 °F 11.8 °F 88% 30.27 in - WNW 21.9 mph - N/A   Unknown
4:00 PM 14.7 °F -0.5 °F 11.5 °F 87% 30.27 in - WNW 15.0 mph - N/A   Unknown
5:00 PM 15.1 °F 1.8 °F 11.7 °F 86% 30.27 in - WNW 11.5 mph - N/A   Unknown
6:00 PM 15 °F - 12 °F 81% 30.27 in - WSW 10.4 mph - -  
6:00 PM 14.9 °F 2.3 °F 11.8 °F 88% 30.27 in - WSW 10.4 mph - N/A   Unknown
7:00 PM 16.5 °F 3.0 °F 13.5 °F 88% 30.27 in - West 12.7 mph - N/A   Unknown
9:00 PM 14.5 °F 1.1 °F 12.2 °F 90% 30.24 in - West 11.5 mph - N/A   Unknown
10:00 PM 18.5 °F 6.8 °F 16.3 °F 91% 30.23 in - West 10.4 mph - N/A   Unknown
11:00 PM 16.5 °F 3.6 °F 14.2 °F 90% 30.22 in - West 11.5 mph - N/A   Unknown